TimeEDT,TemperatureF,Dew PointF,Humidity,Sea Level PressureIn,VisibilityMPH,Wind Direction,Wind SpeedMPH,Gust SpeedMPH,PrecipitationIn,Events,Conditions,WindDirDegrees,DateUTC
12:54 AM,19.9,12.9,74,30.67,10.0,Calm,Calm,-,N/A,,Clear,0,2014-04-17 04:54:00
1:54 AM,17.1,15.1,92,30.69,10.0,Calm,Calm,-,N/A,,Clear,0,2014-04-17 05:54:00
2:54 AM,18.0,14.0,84,30.71,10.0,ESE,3.5,-,N/A,,Clear,120,2014-04-17 06:54:00
3:54 AM,16.0,12.9,88,30.73,10.0,Calm,Calm,-,N/A,,Clear,0,2014-04-17 07:54:00
4:54 AM,15.1,12.0,88,30.76,10.0,Calm,Calm,-,N/A,,Clear,0,2014-04-17 08:54:00
5:54 AM,14.0,10.9,88,30.79,10.0,Calm,Calm,-,N/A,,Clear,0,2014-04-17 09:54:00
6:54 AM,19.0,16.0,88,30.81,10.0,Calm,Calm,-,N/A,,Clear,0,2014-04-17 10:54:00
7:54 AM,28.9,19.0,67,30.83,10.0,Calm,Calm,-,N/A,,Clear,0,2014-04-17 11:54:00
8:54 AM,30.9,14.0,50,30.85,10.0,NNE,3.5,-,N/A,,Clear,30,2014-04-17 12:54:00
9:54 AM,33.1,14.0,46,30.86,10.0,Calm,Calm,-,N/A,,Clear,0,2014-04-17 13:54:00
10:54 AM,36.0,10.9,36,30.85,10.0,SE,5.8,-,N/A,,Clear,130,2014-04-17 14:54:00
12:54 PM,39.9,10.9,31,30.82,10.0,Variable,3.5,-,N/A,,Clear,0,2014-04-17 16:54:00
1:54 PM,42.1,10.9,28,30.80,10.0,Variable,3.5,-,N/A,,Clear,0,2014-04-17 17:54:00
2:54 PM,43.0,10.0,26,30.77,10.0,North,-9999.0,-,N/A,,Clear,0,2014-04-17 18:54:00
3:54 PM,45.0,12.0,26,30.76,10.0,NE,6.9,-,N/A,,Clear,40,2014-04-17 19:54:00
4:54 PM,46.0,12.9,26,30.74,10.0,East,6.9,-,N/A,,Clear,100,2014-04-17 20:54:00
5:54 PM,44.1,12.9,28,30.73,10.0,SE,5.8,-,N/A,,Clear,130,2014-04-17 21:54:00
6:54 PM,41.0,18.0,40,30.73,10.0,SE,6.9,-,N/A,,Clear,140,2014-04-17 22:54:00
7:54 PM,36.0,19.0,50,30.74,10.0,SE,3.5,-,N/A,,Clear,130,2014-04-17 23:54:00
8:54 PM,34.0,19.0,54,30.75,10.0,SSE,3.5,-,N/A,,Clear,150,2014-04-18 00:54:00
9:54 PM,30.0,19.9,66,30.74,10.0,SSW,4.6,-,N/A,,Clear,200,2014-04-18 01:54:00
10:54 PM,27.0,19.9,75,30.72,10.0,Calm,Calm,-,N/A,,Clear,0,2014-04-18 02:54:00
11:54 PM,25.0,19.0,78,30.71,10.0,Calm,Calm,-,N/A,,Clear,0,2014-04-18 03:54:00